GW2921 Weather Reports


time (UTC)temp
C
wind
direction
speed
KPH
gust
KPH
rain 1hr
cm
rain 24hr
cm
rain mn
cm
humidity
%
barometer
mb
20260503010051 5 0 0.0 1.6 0.00 0.00 0.00 62 1015.5
20260503004558 6 0 0.0 4.8 0.00 0.00 0.00 59 1015.4
20260503003100 6 194 0.0 1.6 0.00 0.00 0.00 57 1015.4
20260503001555 7 0 0.0 4.8 0.00 0.00 0.00 55 1015.2
20260503000056 7 0 0.0 3.2 0.00 0.00 0.00 53 1015.1
20260502234557 7 165 1.6 12.9 0.00 0.00 0.00 53 1014.8
20260502233056 7 142 1.6 11.3 0.00 0.00 0.00 52 1014.7
20260502231556 7 0 1.6 9.7 0.00 0.00 0.00 51 1014.6
20260502230055 8 186 0.0 4.8 0.00 0.00 0.00 52 1014.7
20260502224553 8 0 0.0 9.7 0.00 0.00 0.00 52 1014.4
20260502223054 8 137 1.6 6.4 0.00 0.00 0.00 50 1014.4
20260502221558 8 0 0.0 6.4 0.00 0.00 0.00 50 1014.2
20260502220051 9 86 1.6 9.7 0.00 0.00 0.00 49 1014.1
20260502214556 9 140 1.6 11.3 0.00 0.00 0.00 50 1014.0
20260502213050 8 0 0.0 9.7 0.00 0.00 0.00 51 1014.1
20260502211549 8 182 1.6 9.7 0.00 0.00 0.00 50 1013.9
20260502210106 8 113 0.0 11.3 0.00 0.00 0.00 51 1013.9
20260502204555 10 202 1.6 14.5 0.00 0.00 0.00 47 1013.9
20260502203051 8 0 1.6 12.9 0.00 0.00 0.00 50 1014.0
20260502201550 9 143 4.8 12.9 0.00 0.00 0.00 50 1014.1
20260502200054 10 102 3.2 11.3 0.00 0.00 0.00 48 1014.0
20260502194600 9 154 3.2 12.9 0.00 0.00 0.00 47 1014.2
20260502193047 10 70 3.2 19.3 0.00 0.00 0.00 46 1014.0
20260502191558 10 134 1.6 9.7 0.00 0.00 0.00 44 1014.1
20260502190051 10 161 3.2 22.5 0.00 0.00 0.00 44 1014.1
20260502184551 10 123 3.2 12.9 0.00 0.00 0.00 45 1014.2
20260502183054 11 103 4.8 12.9 0.00 0.00 0.00 42 1014.3
20260502181552 10 67 4.8 17.7 0.00 0.00 0.00 41 1014.3
20260502163054 10 162 1.6 11.3 0.00 0.00 0.00 46 1014.7
20260502161556 10 142 1.6 11.3 0.00 0.00 0.00 47 1015.0
20260502151602 9 194 3.2 9.7 0.00 0.00 0.00 48 1015.3
20260502130105 5 0 0.0 11.3 0.00 0.00 0.00 67 1015.7
20260502123059 4 0 0.0 3.2 0.00 0.00 0.00 69 1015.5
20260502121556 4 0 0.0 4.8 0.00 0.00 0.00 71 1015.6
20260502114608 3 0 0.0 3.2 0.00 0.00 0.00 75 1015.7
20260502113053 2 0 0.0 0.0 0.00 0.00 0.00 79 1015.6
20260502111558 2 0 0.0 1.6 0.00 0.00 0.00 80 1015.4
20260502110054 2 0 0.0 0.0 0.00 0.00 0.00 79 1015.4
20260502104555 2 0 0.0 0.0 0.00 0.00 0.00 78 1015.3
20260502103106 3 0 0.0 1.6 0.00 0.00 0.00 76 1015.2
20260502101559 3 0 0.0 1.6 0.00 0.00 0.00 74 1015.2
20260502100118 3 0 0.0 0.0 0.00 0.00 0.00 73 1015.3
20260502090110 5 0 0.0 1.6 0.00 0.00 0.00 65 1015.5
20260502070053 6 0 0.0 11.3 0.00 0.00 0.00 66 1015.0
20260502064603 6 0 0.0 4.8 0.00 0.00 0.00 70 1015.3
20260502063047 7 86 1.6 11.3 0.00 0.00 0.00 73 1015.3
20260502061609 7 0 0.0 4.8 0.00 0.00 0.00 73 1015.4
20260502060051 7 98 0.0 4.8 0.00 0.00 0.00 74 1015.5
20260502054553 7 0 1.6 8.0 0.00 0.00 0.00 73 1015.5
20260502053057 7 0 0.0 11.3 0.00 0.00 0.00 73 1015.4
20260502051546 7 166 0.0 3.2 0.00 0.00 0.00 72 1015.3
20260502050053 7 199 0.0 4.8 0.00 0.00 0.00 71 1015.5
20260502044548 8 172 0.0 6.4 0.00 0.00 0.00 71 1015.4
20260502043058 8 178 0.0 8.0 0.00 0.00 0.00 71 1015.5
20260502041553 8 77 0.0 3.2 0.00 0.00 0.00 71 1015.5
20260502040055 8 101 0.0 14.5 0.00 0.00 0.00 70 1015.5
20260502034549 8 138 1.6 4.8 0.00 0.00 0.00 70 1015.4
20260502033048 9 0 0.0 6.4 0.00 0.00 0.00 69 1015.4
20260502031553 9 0 0.0 4.8 0.00 0.00 0.00 68 1015.6
20260502024601 9 137 0.0 8.0 0.00 0.00 0.00 66 1015.4
20260502023052 10 140 0.0 4.8 0.00 0.00 0.00 67 1015.4
20260502021555 10 0 0.0 11.3 0.00 0.00 0.00 68 1015.1
20260502020054 10 0 0.0 4.8 0.00 0.00 0.00 70 1015.0
20260502014551 10 171 0.0 9.7 0.00 0.00 0.00 70 1014.6
20260502013052 10 90 1.6 6.4 0.00 0.00 0.00 67 1014.3
20260502011553 11 191 1.6 14.5 0.00 0.00 0.00 65 1014.2